カタログに戻る

KUIPER-00016

運用中通信LEO
NORAD 63732·PAYLOAD·🇺🇸 United States

打ち上げ Apr 28, 2025 から Cape Canaveral Space Force Station

Loading…

次のパス (今後24時間)

TLE

最新Source: CelesTrak SupGP

元期: Sep 15, 2026, 00:30 UTC

1 63732C 25088J   26258.02129630  .00001088  00000+0  14246-3 0  2584
2 63732  51.9010 353.3470 0000375 102.3828 202.4899 14.79919051    14

AllMySatでKUIPER-00016をリアルタイム追跡

Download on the App Store